星链-33948(STARLINK-33948)

导读

STARLINK-33948是美国SpaceX公司星链(Starlink)项目的卫星,于2025年10月25日发射入轨。星链旨在构建全球低轨卫星互联网星座,提供高速低延迟宽带服务,该卫星属于星链扩张进程中的一员,融入现有七千余颗卫星的网络,助力覆盖全球偏远区域与海洋网络需求,支撑SpaceX向千兆级互联网服务推进。

基本信息
目录编号:
66147
目录名称:
STARLINK-33948
国际标识:
2025-240B
轨道中心:
EARTH
卫星名称:
星链-33948
卫星全名:
星链-33948(STARLINK-33948)
卫星状态:
在轨 (已飞行314 天)
发射日期:
2025-10-25 UTC
国别 :
美国 (US)
星等 :
--
轨道信息
数据来源 国际轨道数据
星历时间: 2026-09-04T01:25:15+0800
10小时前
查看轨道信息
半长轴: 6840.828km
偏心率: 0.0001941
轨道倾角: 53.159°
近地点辐角 151.848°
升交点赤经 313.940°
平近点角 208.263°
近地点: 461.363km
远地点: 464.019km
周期: 93.847分钟
每日圈数: 15.344044
详细信息
固有亮度:
5
最大亮度:
2.5
卫星平台:
Starlink V1.0
覆盖范围:
全球
运营商:
太空探索技术公司
运营商所在国:
美国
制造商(研发单位):
太空探索技术公司
制造商所在国:
美国
使用方式:
暂无
卫星简介
Starlink 计划是 SpaceX 推出的全球卫星互联网项目,通过发射低轨道卫星,为全球尤其是偏远地区提供高速、低延迟的互联网服务。自 2019 年起,Starlink 已部署数千颗卫星,旨在缩小全球数字鸿沟,推动互联网普及。该项目还为军事、航空等行业提供通信支持,带来广泛经济效益。
2D轨道图
3D轨道图
轨道高度分析图
轨道倾角分析图
轨道综合分析图
查看轨道综合分析图